Hourly Weather Jugsalai

Today, 30 November, Monday

Time Temperature Precipitation Wind Pressure Humidity
00:00 +18°C° 0 mm 0 mps 748 mmHg 43%
01:00 +18°C° 0 mm 0 mps 748 mmHg 44%
02:00 +18°C° 0 mm 0 mps 747 mmHg 46%
03:00 +19°C° 0 mm 1 mps 747 mmHg 47%
04:00 +19°C° 0 mm 1 mps 747 mmHg 49%
05:00 +19°C° 0 mm 1 mps 747 mmHg 50%
06:00 +18°C° 0 mm 1 mps 747 mmHg 49%
07:00 +20°C° 0 mm 1 mps 748 mmHg 46%
08:00 +22°C° 0 mm 1 mps 748 mmHg 43%
09:00 +24°C° 0 mm 1 mps 749 mmHg 40%
10:00 +25°C° 0 mm 1 mps 748 mmHg 36%
11:00 +27°C° 0 mm 1 mps 748 mmHg 32%
12:00 +29°C° 0 mm 1 mps 748 mmHg 29%
13:00 +30°C° 0 mm 1 mps 747 mmHg 28%
14:00 +30°C° 0 mm 1 mps 746 mmHg 26%
15:00 +30°C° 0 mm 1 mps 746 mmHg 25%
16:00 +28°C° 0 mm 1 mps 746 mmHg 28%
17:00 +27°C° 0 mm 1 mps 746 mmHg 30%
18:00 +23°C° 0 mm 0 mps 746 mmHg 33%
19:00 +22°C° 0 mm 0 mps 746 mmHg 34%
20:00 +21°C° 0 mm 0 mps 747 mmHg 35%
21:00 +20°C° 0 mm 0 mps 748 mmHg 36%
22:00 +22°C° 0 mm 1 mps 748 mmHg 38%
23:00 +21°C° 0 mm 1 mps 748 mmHg 40%

Tomorrow, 1 December, Tuesday

Time Temperature Precipitation Wind Pressure Humidity
00:00 +20°C° 0 mm 1 mps 747 mmHg 42%
01:00 +20°C° 0 mm 1 mps 747 mmHg 43%
02:00 +19°C° 0 mm 1 mps 747 mmHg 44%
03:00 +19°C° 0 mm 1 mps 747 mmHg 46%
04:00 +18°C° 0 mm 1 mps 747 mmHg 47%
05:00 +18°C° 0 mm 1 mps 747 mmHg 48%
06:00 +16°C° 0 mm 0 mps 747 mmHg 49%
07:00 +18°C° 0 mm 0 mps 748 mmHg 46%
08:00 +19°C° 0 mm 0 mps 748 mmHg 42%
09:00 +21°C° 0 mm 0 mps 749 mmHg 39%
10:00 +23°C° 0 mm 0 mps 748 mmHg 35%
11:00 +27°C° 0 mm 1 mps 748 mmHg 31%
12:00 +29°C° 0 mm 1 mps 748 mmHg 28%
13:00 +29°C° 0 mm 1 mps 747 mmHg 26%
14:00 +30°C° 0 mm 1 mps 746 mmHg 25%
15:00 +30°C° 0 mm 1 mps 746 mmHg 24%
16:00 +28°C° 0 mm 1 mps 746 mmHg 27%
17:00 +26°C° 0 mm 1 mps 746 mmHg 30%
18:00 +24°C° 0 mm 1 mps 746 mmHg 33%
19:00 +22°C° 0 mm 0 mps 746 mmHg 34%
20:00 +21°C° 0 mm 0 mps 747 mmHg 35%
21:00 +20°C° 0 mm 0 mps 747 mmHg 36%
22:00 +20°C° 0 mm 0 mps 747 mmHg 38%
23:00 +21°C° 0 mm 1 mps 747 mmHg 39%

Day after tomorrow, 2 December, Wednesday

Time Temperature Precipitation Wind Pressure Humidity
00:00 +20°C° 0 mm 1 mps 747 mmHg 41%
01:00 +20°C° 0 mm 1 mps 746 mmHg 42%
02:00 +19°C° 0 mm 1 mps 746 mmHg 44%
03:00 +17°C° 0 mm 0 mps 746 mmHg 45%
04:00 +17°C° 0 mm 0 mps 746 mmHg 47%
05:00 +16°C° 0 mm 0 mps 746 mmHg 48%
06:00 +16°C° 0 mm 0 mps 746 mmHg 49%
07:00 +18°C° 0 mm 0 mps 747 mmHg 46%
08:00 +21°C° 0 mm 1 mps 747 mmHg 42%
09:00 +23°C° 0 mm 1 mps 748 mmHg 39%
10:00 +25°C° 0 mm 1 mps 747 mmHg 36%
11:00 +25°C° 0 mm 0 mps 747 mmHg 32%
12:00 +27°C° 0 mm 0 mps 746 mmHg 28%
13:00 +30°C° 0 mm 1 mps 746 mmHg 27%
14:00 +30°C° 0 mm 1 mps 745 mmHg 26%
15:00 +30°C° 0 mm 1 mps 744 mmHg 25%
16:00 +28°C° 0 mm 1 mps 744 mmHg 28%
17:00 +27°C° 0 mm 1 mps 744 mmHg 31%
18:00 +23°C° 0 mm 0 mps 744 mmHg 34%
19:00 +22°C° 0 mm 0 mps 745 mmHg 35%
20:00 +21°C° 0 mm 0 mps 745 mmHg 37%
21:00 +21°C° 0 mm 0 mps 746 mmHg 38%
22:00 +22°C° 0 mm 1 mps 745 mmHg 40%
23:00 +21°C° 0 mm 1 mps 745 mmHg 43%

3 December, Thursday

Time Temperature Precipitation Wind Pressure Humidity
00:00 +21°C° 0 mm 1 mps 745 mmHg 45%
01:00 +20°C° 0 mm 1 mps 745 mmHg 47%
02:00 +18°C° 0 mm 0 mps 744 mmHg 48%
03:00 +17°C° 0 mm 0 mps 744 mmHg 50%
04:00 +17°C° 0 mm 0 mps 744 mmHg 51%
05:00 +16°C° 0 mm 0 mps 745 mmHg 52%
06:00 +16°C° 0 mm 0 mps 745 mmHg 53%
07:00 +18°C° 0 mm 0 mps 746 mmHg 49%
08:00 +20°C° 0 mm 0 mps 746 mmHg 45%
09:00 +24°C° 0 mm 1 mps 747 mmHg 41%
10:00 +26°C° 0 mm 1 mps 747 mmHg 37%
11:00 +26°C° 0 mm 0 mps 746 mmHg 33%
12:00 +28°C° 0 mm 0 mps 746 mmHg 29%
13:00 +30°C° 0 mm 1 mps 745 mmHg 27%
14:00 +30°C° 0 mm 1 mps 744 mmHg 26%
15:00 +31°C° 0 mm 1 mps 744 mmHg 24%
16:00 +29°C° 0 mm 1 mps 744 mmHg 27%
17:00 +27°C° 0 mm 1 mps 744 mmHg 30%
18:00 +23°C° 0 mm 0 mps 744 mmHg 33%
19:00 +22°C° 0 mm 0 mps 745 mmHg 34%
20:00 +24°C° 0 mm 1 mps 745 mmHg 35%
21:00 +23°C° 0 mm 1 mps 745 mmHg 36%
22:00 +22°C° 0 mm 1 mps 745 mmHg 39%
23:00 +21°C° 0 mm 1 mps 745 mmHg 41%

4 December, Friday

Time Temperature Precipitation Wind Pressure Humidity
00:00 +21°C° 0 mm 1 mps 745 mmHg 43%
01:00 +18°C° 0 mm 0 mps 745 mmHg 44%
02:00 +18°C° 0 mm 0 mps 744 mmHg 46%
03:00 +17°C° 0 mm 0 mps 744 mmHg 47%
04:00 +17°C° 0 mm 0 mps 744 mmHg 48%
05:00 +16°C° 0 mm 0 mps 744 mmHg 49%
06:00 +16°C° 0 mm 0 mps 745 mmHg 50%
07:00 +18°C° 0 mm 0 mps 745 mmHg 47%
08:00 +22°C° 0 mm 1 mps 746 mmHg 43%
09:00 +23°C° 0 mm 1 mps 746 mmHg 39%
10:00 +26°C° 0 mm 1 mps 746 mmHg 35%
11:00 +26°C° 0 mm 0 mps 745 mmHg 32%
12:00 +28°C° 0 mm 0 mps 745 mmHg 28%
13:00 +30°C° 0 mm 1 mps 744 mmHg 26%
14:00 +30°C° 0 mm 1 mps 744 mmHg 24%
15:00 +31°C° 0 mm 2 mps 743 mmHg 23%
16:00 +29°C° 0 mm 1 mps 743 mmHg 25%
17:00 +27°C° 0 mm 1 mps 743 mmHg 28%
18:00 +25°C° 0 mm 1 mps 744 mmHg 31%
19:00 +24°C° 0 mm 1 mps 744 mmHg 32%
20:00 +24°C° 0 mm 1 mps 745 mmHg 34%
21:00 +23°C° 0 mm 1 mps 745 mmHg 35%
22:00 +22°C° 0 mm 1 mps 745 mmHg 37%
23:00 +19°C° 0 mm 0 mps 745 mmHg 38%

5 December, Saturday

Time Temperature Precipitation Wind Pressure Humidity
00:00 +19°C° 0 mm 0 mps 745 mmHg 40%
01:00 +18°C° 0 mm 0 mps 745 mmHg 41%
02:00 +20°C° 0 mm 1 mps 745 mmHg 43%
03:00 +19°C° 0 mm 1 mps 744 mmHg 44%
04:00 +17°C° 0 mm 0 mps 745 mmHg 45%
05:00 +16°C° 0 mm 0 mps 745 mmHg 46%
06:00 +16°C° 0 mm 0 mps 745 mmHg 47%
07:00 +18°C° 0 mm 0 mps 745 mmHg 44%
08:00 +20°C° 0 mm 0 mps 746 mmHg 40%
09:00 +23°C° 0 mm 1 mps 746 mmHg 37%
10:00 +25°C° 0 mm 1 mps 746 mmHg 33%
11:00 +26°C° 0 mm 0 mps 746 mmHg 30%
12:00 +28°C° 0 mm 0 mps 745 mmHg 26%
13:00 +30°C° 0 mm 1 mps 745 mmHg 25%
14:00 +30°C° 0 mm 1 mps 744 mmHg 23%
15:00 +31°C° 0 mm 1 mps 743 mmHg 22%
16:00 +29°C° 0 mm 1 mps 743 mmHg 25%
17:00 +27°C° 0 mm 1 mps 743 mmHg 28%
18:00 +25°C° 0 mm 1 mps 744 mmHg 31%
19:00 +24°C° 0 mm 1 mps 744 mmHg 32%
20:00 +24°C° 0 mm 1 mps 744 mmHg 34%
21:00 +23°C° 0 mm 1 mps 745 mmHg 35%
22:00 +22°C° 0 mm 1 mps 745 mmHg 37%
23:00 +22°C° 0 mm 1 mps 745 mmHg 39%
Show more